Veïnat del Coll





Hora UTC 08:40
Temperatura 9.3 ºC
Humitat 78.0 %
Pressió 1022.8 hPa
Pluja 0.2 mm
Velocitat vent 3.2 km/h
Direcció vent S

Dades diàries 2019-12-07



Hora UTC (hivern +1h; estiu +2h)
Temperatura (ºC) Humitat (%) Pressió (hPa) Velocitat vent (km/h) Precipitació (mm)
Hora UTC Aire Humitat Pressió Vel. Dir. Vel. Max Dir. Intent. màx 5 min.
00:05 4.9 96.0 1021.9 4.8 W 4.8 0.0
00:10 5.2 96.0 1022.0 3.2 W 0.0 0.0
00:15 5.4 97.0 1021.9 4.8 WNW 0.0 0.0
00:20 5.6 96.0 1021.9 4.8 WNW 0.0 0.0
00:25 5.6 96.0 1021.9 3.2 WNW 0.0 0.2
00:30 5.3 95.0 1021.9 4.8 WNW 0.0 0.0
00:35 5.1 95.0 1021.9 3.2 WNW 0.0 0.0
00:40 5.1 96.0 1022.0 4.8 WNW 0.0 0.0
00:45 5.4 96.0 1022.1 4.8 WNW 0.0 0.0
00:50 5.7 97.0 1022.1 4.8 WNW 0.0 0.0
00:55 6.1 97.0 1022.1 3.2 WNW 0.0 0.0
01:00 6.3 96.0 1022.2 3.2 WNW 0.0 0.0
01:05 6.4 96.0 1022.1 3.2 WNW 0.0 0.0
01:10 6.6 95.0 1022.1 1.6 WNW 0.0 0.0
01:15 6.8 94.0 1022.1 1.6 WNW 0.0 0.0
01:20 6.9 94.0 1022.3 1.6 WNW 0.0 0.0
01:25 6.8 93.0 1022.2 0.0 WNW 0.0 0.0
01:30 6.7 93.0 1022.3 1.6 WNW 0.0 0.0
01:35 6.6 92.0 1022.4 1.6 WNW 0.0 0.0
01:40 6.5 92.0 1022.4 1.6 WNW 0.0 0.0
01:45 6.4 92.0 1022.3 3.2 WNW 0.0 0.0
01:50 6.5 91.0 1022.3 1.6 WNW 0.0 0.0
01:55 6.6 90.0 1022.3 1.6 WNW 0.0 0.0
02:00 6.6 90.0 1022.3 3.2 WNW 0.0 0.0
02:05 6.6 90.0 1022.3 1.6 WNW 0.0 0.0
02:10 6.6 89.0 1022.3 1.6 WNW 0.0 0.0
02:15 6.6 89.0 1022.2 3.2 WNW 0.0 0.0
02:20 6.6 89.0 1022.1 3.2 WNW 0.0 0.0
02:25 1022.1 0.0
02:30 1022.1 0.0
02:35 1022.2 0.0
02:40 6.6 86.0 1022.1 3.2 WNW 0.0 0.0
02:45 6.5 86.0 1022.1 1.6 WNW 0.0 0.0
02:50 6.4 86.0 1022.1 1.6 WNW 0.0 0.0
02:55 6.4 86.0 1021.9 1.6 WNW 0.0 0.0
03:00 6.4 86.0 1021.9 3.2 WNW 0.0 0.0
03:05 6.3 87.0 1021.9 3.2 WNW 0.0 0.0
03:10 6.3 86.0 1021.9 4.8 WNW 0.0 0.0
03:15 6.3 86.0 1021.7 4.8 WNW 0.0 0.0
03:20 6.3 86.0 1021.6 4.8 WNW 0.0 0.0
03:25 1021.6 0.0
03:30 1021.6 0.0
03:35 1021.6 0.0
03:40 1021.5 0.0
03:45 1021.4 0.0
03:50 1021.5 0.0
03:55 1021.4 0.0
04:00 1021.3 0.0
04:05 1021.2 0.0
04:10 1021.3 0.0
04:15 1021.2 0.0
04:20 1021.1 0.0
04:25 1021.3 0.0
04:30 1021.3 0.0
04:35 1021.2 0.0
04:40 1021.2 0.0
04:45 1021.3 0.0
04:50 1021.3 0.0
04:55 1021.2 0.0
05:00 1021.2 0.0
05:05 1021.3 0.0
05:10 1021.3 0.0
05:15 1021.4 0.0
05:20 6.2 87.0 1021.4 3.2 WNW 0.0 0.0
05:25 6.2 87.0 1021.5 3.2 WNW 0.0 0.0
05:30 6.2 87.0 1021.5 1.6 WNW 0.0 0.0
05:35 6.2 87.0 1021.5 1.6 WNW 0.0 0.0
05:40 6.2 87.0 1021.5 3.2 WNW 0.0 0.0
05:45 6.2 87.0 1021.7 3.2 WNW 0.0 0.0
05:50 6.2 87.0 1021.6 3.2 WNW 0.0 0.0
05:55 6.2 87.0 1021.6 3.2 WNW 0.0 0.0
06:00 1021.7 0.0
06:05 1021.6 0.0
06:10 1021.6 0.0
06:15 1021.8 0.0
06:20 1021.7 0.0
06:25 1021.8 0.0
06:30 1021.9 0.0
06:35 6.2 87.0 1021.8 1.6 W 0.0 0.0
06:40 6.2 86.0 1021.9 0.0 W 0.0 0.0
06:45 6.2 86.0 1022.1 1.6 W 0.0 0.0
06:50 6.2 86.0 1022.1 3.2 W 0.0 0.0
06:55 6.2 86.0 1022.1 1.6 W 0.0 0.0
07:00 6.2 86.0 1022.1 0.0 W 0.0 0.0
07:05 6.2 86.0 1022.1 0.0 W 0.0 0.0
07:10 6.2 86.0 1022.3 0.0 W 0.0 0.0
07:15 6.3 86.0 1022.3 0.0 W 0.0 0.0
07:20 6.3 86.0 1022.3 0.0 W 0.0 0.0
07:25 6.4 86.0 1022.3 0.0 W 0.0 0.0
07:30 6.4 86.0 1022.4 0.0 W 0.0 0.0
07:35 6.4 86.0 1022.4 0.0 W 0.0 0.0
07:40 6.4 86.0 1022.5 0.0 W 0.0 0.0
07:45 6.4 86.0 1022.5 1.6 W 0.0 0.0
07:50 6.6 87.0 1022.5 0.0 W 0.0 0.0
07:55 6.7 87.0 1022.5 0.0 W 0.0 0.0
08:00 6.9 87.0 1022.5 0.0 WSW 0.0 0.0
08:05 7.1 86.0 1022.5 1.6 WSW 0.0 0.0
08:10 7.4 85.0 1022.6 0.0 WSW 0.0 0.0
08:15 7.8 84.0 1022.6 3.2 WSW 0.0 0.0
08:20 8.2 84.0 1022.7 0.0 WSW 0.0 0.0
08:25 8.6 81.0 1022.6 3.2 SW 0.0 0.0
08:30 8.8 80.0 1022.6 1.6 SSW 0.0 0.0
08:35 9.1 78.0 1022.8 3.2 SSW 0.0 0.0
08:40 9.3 78.0 1022.8 3.2 S 0.0 0.0
Màxima 9.3 97.0 1022.8 4.8 WNW 4.8 0.2
Mínima 4.9 78.0 1021.1
Total 0.2